Overview Statistics Trail Chart Weather Telemetry Raw packets
 

This is the latest recevied weather packets stored in our database for station/object K0QED. If no packets are shown the sender has not sent any weather packets the latest 10 day(s).

<< 67 68 69 70 71 72 73 >>
Time Temp. Humidity Pressure Rain* Wind** Luminosity Snow
1788150493 15.56° C 81% 1028.4 hPa 6.6 mm - 0 W/m² -
1788150192 17.78° C 59% 1028.6 hPa 0 mm - 0 W/m² -
1788149888 17.78° C 54% 1028.2 hPa 0 mm - 0 W/m² -
1788149587 17.78° C 54% 1028.4 hPa 0 mm - 0 W/m² -
1788149282 17.78° C 54% 1028 hPa 0 mm - 0 W/m² -
1788148981 17.78° C 54% 1028.1 hPa 0 mm - 0 W/m² -
1788148680 17.78° C 55% 1027.9 hPa 0 mm - 0 W/m² -
1788148379 17.78° C 55% 1027.6 hPa 0 mm - 0 W/m² -
1788148079 17.78° C 55% 1027.9 hPa 0 mm - 0 W/m² -
1788147774 17.22° C 56% 1027.4 hPa 0 mm - 0 W/m² -
1788147469 17.22° C 57% 1027.4 hPa 0 mm - 0 W/m² -
1788147169 17.22° C 57% 1027.4 hPa 0 mm - 0 W/m² -
1788146864 17.22° C 57% 1027.2 hPa 0 mm - 0 W/m² -
1788146559 17.78° C 57% 1027 hPa 0 mm - 0 W/m² -
1788146254 17.78° C 57% 1027.1 hPa 0 mm - 0 W/m² -
1788145949 17.78° C 56% 1027.2 hPa 0 mm - 0 W/m² -
1788145648 17.78° C 55% 1027.2 hPa 0 mm - 0 W/m² -
1788145347 17.78° C 55% 1026.9 hPa 0 mm - 0 W/m² -
1788145046 17.78° C 54% 1026.9 hPa 0 mm - 0 W/m² -
1788144740 17.78° C 56% 1026.7 hPa 0 mm - 0 W/m² -
1788144437 16.67° C 61% 1026.9 hPa 0 mm - 0 W/m² -
1788144135 16.67° C 64% 1026.9 hPa 0 mm - 0 W/m² -
1788143834 16.67° C 64% 1027 hPa 0 mm - 0 W/m² -
1788143528 16.67° C 64% 1026.5 hPa 0 mm - 0 W/m² -
1788143223 16.67° C 65% 1026.5 hPa 0 mm - 0 W/m² -

* Rain latest hour (hover to see other rain measurements)
** Current wind speed in m/s (hover to see current wind gust speed)